Regional Weather Roundup
Issued by NWS

Home | Current Version | Previous Version | Text Only | Print | Product List | Glossary On
Versions: 1 2 3 4 5 6 7 8 9 10 11 12 13 14 15 16 17 18 19 20 21 22 23 24 25 26 27 28 29 30 31 32 33 34 35 36 37 38 39 40 41 42 43 44 45 46 47 48 49 50
000
ASUS43 KDTX 172110
RWRMI
MICHIGAN HOURLY REGIONAL WEATHER ROUNDUP
NATIONAL WEATHER SERVICE DETROIT/PONTIAC MI
400 PM EST WED DEC 17 2014

NOTE: "FAIR" INDICATES FEW OR NO CLOUDS BELOW 12,000 FEET WITH NO
SIGNIFICANT WEATHER AND/OR OBSTRUCTION TO VISIBILITY.

MIZ047>049-052>055-059>063-066>070-074>076-081>083-172200-
SOUTHEAST LOWER MICHIGAN

CITY           SKY/WX    TMP DP  RH WIND       PRES   REMARKS
ADRIAN         CLOUDY    29  21  72 W10G22    30.11S
ALMA           CLOUDY    28  22  77 W13       30.08R
ANN ARBOR      CLOUDY    30  21  69 W15       30.08R
BAD AXE        CLOUDY    31  28  88 W15G22    29.99R
DETROIT CITY   CLOUDY    33  20  58 W15G26    30.07R
DETROIT        CLOUDY    31  23  72 W14G21    30.08S
FLINT          CLOUDY    30  19  63 W18G26    30.07R
GROSSE ILE     CLOUDY    32  25  74 W12       30.07S
HILLSDALE      CLOUDY    29  23  79 W15G24    30.09S
HOWELL         CLOUDY    28  20  72 W12G21    30.06S

CITY           SKY/WX    TMP DP  RH WIND       PRES   REMARKS
JACKSON        CLOUDY    29  22  75 W13G20    30.08S
LAMBERTVILLE   CLOUDY    32  23  69 W13G20    30.12S
LANSING        CLOUDY    29  21  72 W16       30.09R
LAPEER         NOT AVBL
MASON          CLOUDY    28  22  76 W17G25    30.08R
MONROE         CLOUDY    30  23  74 W13G22    30.09R
MT. CLEMENS    CLOUDY    31  21  67 W18G25    30.03R
PONTIAC        FLURRIES  29  18  63 W22G29    30.04R
PORT HOPE        N/A     31  26  82 W10G21    29.95R
PORT HURON     CLOUDY    30  23  74 W12G22    30.04R
TRI CITIES     CLOUDY    31  21  66 W15G25    30.05R
YPSILANTI      CLOUDY    34  22  61 W21       30.08R
$$
MIZ043>046-050>051-056>058-064>065-071>073-077>080-172200-
SOUTHWEST LOWER MICHIGAN

CITY           SKY/WX    TMP DP  RH WIND       PRES   REMARKS
BATTLE CREEK   CLOUDY    29  20  69 W14G24    30.12R
BENTON HARBOR  CLOUDY    28  20  71 W13G22    30.18R
BIG RAPIDS     CLOUDY    27  23  85 W12       30.06R
COLDWATER      CLOUDY    28  21  74 W15G21    30.12R
HOLLAND        FLURRIES  30  20  66 W15G25    30.15R
GRAND RAPIDS   LGT SNOW  27  20  75 W17G24    30.12R
KALAMAZOO      CLOUDY    29  21  72 NW12      30.13S
MARSHALL       CLOUDY    27  20  75 W14G24    30.10S
MUSKEGON       CLOUDY    29  18  63 NW13G22   30.14R
$$
MIZ016>042-172200-
NORTHERN LOWER MICHIGAN

CITY           SKY/WX    TMP DP  RH WIND       PRES   REMARKS
ALPENA         LGT SNOW  28  25  88 NW12      29.96R FOG
BEAVER ISLAND  LGT SNOW  27  24  87 NW8G17    30.03R
BELLAIRE       LGT SNOW  30  28  91 NW6       30.02R VSB 3/4
CADILLAC       LGT SNOW  25  22  88 W16       30.01R
CHARLEVOIX     FLURRIES  28  26  90 NW16G22   30.04R
FRANKFORT      LGT SNOW  28  26  90 NW16      30.08R
GAYLORD        LGT SNOW  26  23  88 NW8G18    29.94R FOG
GRAYLING       LGT SNOW  28  26  93 W8        29.97S
HARBOR SPRINGS LGT SNOW  28  24  84 NW6       29.99R
HOUGHTON LAKE  LGT SNOW  26  23  88 W15       29.99R VSB 1
MANISTEE       CLOUDY    27  21  80 NW16G24   30.10R
OSCODA         LGT SNOW  31  29  94 W10G16    29.95S
PELLSTON       LGT SNOW  27  22  81 NW13      30.00R
TRAVERSE CITY  LGT SNOW  29  25  85 W14       30.04R FOG
$$
MIZ007>008-015-172200-
EASTERN UPPER MICHIGAN

CITY           SKY/WX    TMP DP  RH WIND       PRES   REMARKS
KINROSS        CLOUDY    25  21  86 N13       29.98R
MACKINAC ISLAN LGT SNOW  26  25  98 NW12G17   29.98R
NEWBERRY       LGT SNOW  24  22  95 NW12      30.01R
S. S. MARIE    LGT SNOW  23  18  81 N8        30.02R
$$
MIZ004>006-011>014-085-172200-
CENTRAL UPPER MICHIGAN

CITY           SKY/WX    TMP DP  RH WIND       PRES   REMARKS
MANISTIQUE     LGT SNOW  27  24  90 N14       30.04R
ESCANABA       CLOUDY    28  21  74 NW9G17    30.08R
MENOMINEE      CLOUDY    28  18  64 NW8       30.11R
SAWYER-GWINN   CLOUDY    25  21  86 N17       30.07R
$$
MIZ001>003-009>011-084-172200-
WESTERN UPPER MICHIGAN

CITY           SKY/WX    TMP DP  RH WIND       PRES   REMARKS
IRON MOUNTAIN  MOCLDY    25  19  78 NW13G24   30.10R
HOUGHTON       FLURRIES  24  18  77 N9        30.16R
COPPER HARBOR    N/A     28  22  78 NE21      30.18R
IRONWOOD       CLOUDY    23  19  86 N8        30.18R
$$

ABBREVIATIONS USED IN REMARKS
   TC - TEMPERATURE IN CELSIUS
  WCI - WIND CHILL INDEX
   HX - HEAT INDEX
  VSB - VISIBILITY



USA.gov is the U.S. government's official web portal to all federal, state and local government web resources and services.